CFG5KA EDDF-GCLP

Flight info

Callsign CFG5KA
Flight time N/A
Altitude 36000
Route SOBRA2L SOBRA Y180 DIK UN857 TOLVU/N0443F370 DCT RAPOR DCT GIMER DCT AHVEC UN857 DISAK DCT ARKIP DCT ARNAV DCT LMG DCT UVELI/N0455F390 DCT OSMOB DCT VAVIX/N0348F210 DCT BTZ DCT URUNA/N0456F390 DCT SSN DCT VRA DCT NEA L14 ADINO DCT ELVAR DCT BAROK UN873 SAMAR
Aircraft A20N/M-SDE2E3FGHIRWXY/LB1

Departure

Time 2026-05-05 12:50
Airport Frankfurt Main Airport (EDDF)

Arrival

Time N/A
Airport Gran Canaria Airport (GCLP)
Time Latitude Longitude Altitude Speed Heading
2026-05-05 12:24 50.03809 8.54590 347 ft 0 kts 160°
2026-05-05 12:44 50.03778 8.54572 349 ft 12 kts 216°
2026-05-05 12:45 50.03691 8.54445 351 ft 14 kts 226°
2026-05-05 12:45 50.03652 8.54290 344 ft 16 kts 249°
2026-05-05 12:45 50.03611 8.54120 347 ft 18 kts 249°
2026-05-05 12:45 50.03566 8.53934 339 ft 19 kts 250°
2026-05-05 12:46 50.03518 8.53733 335 ft 20 kts 249°
2026-05-05 12:46 50.03471 8.53540 334 ft 14 kts 249°
2026-05-05 12:46 50.03436 8.53390 337 ft 16 kts 250°
2026-05-05 12:46 50.03398 8.53221 335 ft 17 kts 251°
2026-05-05 12:47 50.03355 8.53036 333 ft 19 kts 244°
2026-05-05 12:47 50.03304 8.52839 332 ft 20 kts 249°
2026-05-05 12:47 50.03269 8.52691 333 ft 11 kts 251°
2026-05-05 12:47 50.03227 8.52605 333 ft 11 kts 207°
2026-05-05 12:48 50.03182 8.52597 335 ft 0 kts 180°
2026-05-05 12:49 50.03176 8.52597 335 ft 8 kts 180°
2026-05-05 12:50 50.02881 8.52599 333 ft 82 kts 178°
2026-05-05 12:50 50.02090 8.52604 337 ft 146 kts 180°
2026-05-05 12:50 50.00979 8.52627 723 ft 167 kts 178°
2026-05-05 12:50 49.99780 8.52711 1500 ft 175 kts 176°
2026-05-05 12:51 49.98564 8.52824 2370 ft 179 kts 176°
2026-05-05 12:51 49.97254 8.52941 2954 ft 198 kts 176°
2026-05-05 12:51 49.95833 8.53049 3438 ft 214 kts 177°
2026-05-05 12:51 49.94280 8.53149 3891 ft 230 kts 178°
2026-05-05 12:52 49.92697 8.53242 4712 ft 230 kts 178°
2026-05-05 12:52 49.91097 8.53335 5566 ft 232 kts 178°
2026-05-05 12:52 49.89480 8.53425 6376 ft 234 kts 178°
2026-05-05 12:52 49.87836 8.53425 7138 ft 237 kts 185°
2026-05-05 12:53 49.86218 8.52930 7931 ft 239 kts 197°
2026-05-05 12:53 49.84633 8.52018 8579 ft 251 kts 200°
2026-05-05 12:53 49.82933 8.51035 8957 ft 272 kts 199°
2026-05-05 12:53 49.81122 8.50009 9631 ft 279 kts 199°
2026-05-05 12:54 49.77486 8.47419 10573 ft 310 kts 220°
2026-05-05 12:54 49.76131 8.44694 10803 ft 332 kts 243°
2026-05-05 12:54 49.75558 8.41244 11389 ft 342 kts 266°
2026-05-05 12:55 49.75853 8.37584 12123 ft 349 kts 284°
2026-05-05 12:55 49.76625 8.34011 12830 ft 354 kts 288°
2026-05-05 12:55 49.77446 8.30430 13548 ft 357 kts 287°
2026-05-05 12:55 49.78202 8.26754 14203 ft 360 kts 285°
2026-05-05 12:56 49.78885 8.23010 14844 ft 363 kts 283°
2026-05-05 12:56 49.79512 8.19280 15470 ft 367 kts 282°
2026-05-05 12:56 49.80134 8.15424 16094 ft 370 kts 282°
2026-05-05 12:56 49.80751 8.11536 16706 ft 374 kts 282°
2026-05-05 12:57 49.81364 8.07657 17301 ft 377 kts 281°
2026-05-05 12:57 49.81990 8.03695 17900 ft 381 kts 281°
2026-05-05 12:57 49.82623 7.99689 18452 ft 384 kts 281°
2026-05-05 12:57 49.83257 7.95662 18973 ft 387 kts 281°
2026-05-05 12:58 49.83881 7.91685 19466 ft 390 kts 281°
2026-05-05 12:58 49.84536 7.87508 19986 ft 393 kts 281°
2026-05-05 12:58 49.85185 7.83352 20495 ft 397 kts 281°
2026-05-05 12:58 49.85838 7.79164 20994 ft 400 kts 281°
2026-05-05 12:59 49.86492 7.74975 21493 ft 403 kts 281°
2026-05-05 12:59 49.87159 7.70748 21988 ft 407 kts 281°
2026-05-05 12:59 49.87829 7.66468 22474 ft 410 kts 281°
2026-05-05 13:00 49.89158 7.57871 23415 ft 417 kts 281°
2026-05-05 13:00 49.89832 7.53488 23843 ft 419 kts 281°
2026-05-05 13:01 49.91871 7.40179 25095 ft 425 kts 280°
2026-05-05 13:01 49.92550 7.35725 25477 ft 428 kts 280°
2026-05-05 13:01 49.93236 7.31205 25882 ft 430 kts 280°
2026-05-05 13:01 49.93918 7.26709 26261 ft 432 kts 279°
2026-05-05 13:02 49.94605 7.22158 26638 ft 434 kts 279°
2026-05-05 13:02 49.95283 7.17657 26991 ft 436 kts 279°
2026-05-05 13:02 49.95973 7.13064 27357 ft 437 kts 279°
2026-05-05 13:02 49.96665 7.08445 27712 ft 439 kts 279°
2026-05-05 13:03 49.97355 7.03818 28048 ft 441 kts 279°
2026-05-05 13:03 49.98046 6.99172 28390 ft 442 kts 279°
2026-05-05 13:03 49.98720 6.94515 28710 ft 443 kts 276°
2026-05-05 13:03 49.99130 6.89786 29029 ft 441 kts 270°
2026-05-05 13:04 49.99190 6.85098 29336 ft 439 kts 264°
2026-05-05 13:04 49.99033 6.80346 29640 ft 440 kts 263°
2026-05-05 13:04 49.98888 6.75595 29934 ft 442 kts 264°
2026-05-05 13:04 49.98748 6.70813 30213 ft 444 kts 264°
2026-05-05 13:05 49.98606 6.66020 30501 ft 445 kts 263°
2026-05-05 13:05 49.98411 6.61227 30752 ft 445 kts 259°
2026-05-05 13:05 49.97898 6.56503 31038 ft 442 kts 253°
2026-05-05 13:05 49.97053 6.51943 31369 ft 438 kts 246°
2026-05-05 13:06 49.95911 6.47594 31711 ft 434 kts 242°
2026-05-05 13:06 49.94698 6.43308 32075 ft 433 kts 242°
2026-05-05 13:06 49.93519 6.39100 32424 ft 431 kts 242°
2026-05-05 13:06 49.92321 6.34821 32778 ft 430 kts 242°
2026-05-05 13:07 49.91145 6.30632 33106 ft 428 kts 242°
2026-05-05 13:07 49.89953 6.26407 33451 ft 426 kts 240°
2026-05-05 13:07 49.88728 6.22260 33755 ft 425 kts 240°
2026-05-05 13:07 49.87531 6.18079 34021 ft 424 kts 241°
2026-05-05 13:08 49.86289 6.13939 34198 ft 422 kts 237°
2026-05-05 13:08 49.84792 6.10041 34361 ft 420 kts 231°
2026-05-05 13:08 49.83129 6.06409 34509 ft 420 kts 230°
2026-05-05 13:08 49.81432 6.02730 34684 ft 420 kts 230°
2026-05-05 13:09 49.79728 5.99028 34827 ft 422 kts 230°
2026-05-05 13:09 49.78028 5.95339 34965 ft 423 kts 230°
2026-05-05 13:09 49.76315 5.91623 35107 ft 424 kts 231°
2026-05-05 13:09 49.74732 5.87755 35251 ft 428 kts 237°
2026-05-05 13:10 49.73412 5.83617 35372 ft 432 kts 244°
2026-05-05 13:10 49.72374 5.79237 35518 ft 435 kts 249°
2026-05-05 13:10 49.71423 5.74893 35701 ft 435 kts 248°
2026-05-05 13:10 49.70432 5.70479 35845 ft 435 kts 248°
2026-05-05 13:11 49.68389 5.61675 35862 ft 435 kts 247°
2026-05-05 13:11 49.66318 5.52888 35850 ft 435 kts 247°
2026-05-05 13:12 49.64235 5.44093 35848 ft 437 kts 247°
2026-05-05 13:12 49.62167 5.35360 35848 ft 437 kts 248°
2026-05-05 13:13 49.60247 5.26444 35854 ft 439 kts 249°
2026-05-05 13:13 49.58402 5.17478 35847 ft 440 kts 251°
2026-05-05 13:14 49.56831 5.08360 35840 ft 441 kts 252°
2026-05-05 13:14 49.55264 4.99289 35852 ft 442 kts 252°
2026-05-05 13:15 49.53632 4.90133 35848 ft 442 kts 252°
2026-05-05 13:15 49.51996 4.81043 35845 ft 441 kts 251°
2026-05-05 13:16 49.50346 4.71932 35847 ft 442 kts 251°
2026-05-05 13:16 49.48702 4.62887 35843 ft 442 kts 251°
2026-05-05 13:17 49.47040 4.53793 35847 ft 442 kts 251°
2026-05-05 13:17 49.45371 4.44698 35847 ft 442 kts 251°
2026-05-05 13:18 49.43693 4.35596 35839 ft 442 kts 251°
2026-05-05 13:18 49.42026 4.26600 35822 ft 440 kts 251°
2026-05-05 13:19 49.40350 4.17593 35834 ft 439 kts 251°
2026-05-05 13:19 49.38651 4.08516 35833 ft 443 kts 251°
2026-05-05 13:20 49.36745 3.99567 35835 ft 440 kts 244°
2026-05-05 13:20 49.33925 3.91282 35836 ft 437 kts 234°
2026-05-05 13:21 49.30570 3.83603 35837 ft 437 kts 233°
2026-05-05 13:21 49.27200 3.75857 35835 ft 437 kts 233°
2026-05-05 13:22 49.23820 3.68110 35835 ft 437 kts 233°
2026-05-05 13:22 49.20459 3.60435 35831 ft 437 kts 233°
2026-05-05 13:23 49.17073 3.52725 35827 ft 437 kts 233°
2026-05-05 13:23 49.13667 3.44991 35837 ft 440 kts 233°
2026-05-05 13:24 49.10242 3.37240 35830 ft 440 kts 233°
2026-05-05 13:24 49.06822 3.29521 35830 ft 439 kts 233°
2026-05-05 13:25 49.03411 3.21843 35826 ft 441 kts 233°
2026-05-05 13:25 48.99973 3.14128 35827 ft 440 kts 233°
2026-05-05 13:26 48.96526 3.06416 35825 ft 441 kts 233°
2026-05-05 13:26 48.93066 2.98694 35830 ft 442 kts 233°
2026-05-05 13:27 48.89620 2.91027 35834 ft 442 kts 233°
2026-05-05 13:27 48.86149 2.83322 35838 ft 444 kts 233°
2026-05-05 13:28 48.82668 2.75621 35842 ft 442 kts 233°
2026-05-05 13:28 48.79178 2.67923 35829 ft 443 kts 233°
2026-05-05 13:29 48.75683 2.60237 35825 ft 443 kts 233°
2026-05-05 13:29 48.72210 2.52618 35829 ft 443 kts 233°
2026-05-05 13:30 48.68703 2.44949 35829 ft 443 kts 233°
2026-05-05 13:30 48.65193 2.37293 35829 ft 443 kts 233°
2026-05-05 13:31 48.61693 2.29680 35831 ft 444 kts 233°
2026-05-05 13:31 48.57721 2.22606 35837 ft 442 kts 217°
2026-05-05 13:32 48.52454 2.18004 35827 ft 436 kts 198°
2026-05-05 13:32 48.46569 2.15877 35825 ft 436 kts 191°
2026-05-05 13:33 48.40625 2.13964 35821 ft 436 kts 191°
2026-05-05 13:33 48.34725 2.12061 35819 ft 437 kts 191°
2026-05-05 13:34 48.28728 2.10770 35814 ft 436 kts 181°
2026-05-05 13:34 48.22664 2.11140 35825 ft 436 kts 171°
2026-05-05 13:35 48.16647 2.12436 35825 ft 437 kts 173°
2026-05-05 13:35 48.10583 2.12632 35822 ft 437 kts 184°
2026-05-05 13:36 48.04572 2.11519 35823 ft 439 kts 186°
2026-05-05 13:36 47.98523 2.10335 35831 ft 438 kts 186°
2026-05-05 13:37 47.92482 2.09177 35826 ft 437 kts 186°
2026-05-05 13:37 47.86449 2.08028 35821 ft 437 kts 186°
2026-05-05 13:38 47.80469 2.06891 35818 ft 437 kts 186°
2026-05-05 13:38 47.74427 2.05745 35831 ft 439 kts 186°
2026-05-05 13:39 47.68381 2.04600 35821 ft 436 kts 186°
2026-05-05 13:39 47.62423 2.02929 35821 ft 438 kts 195°
2026-05-05 13:40 47.56694 1.99833 35830 ft 438 kts 200°
2026-05-05 13:40 47.51062 1.96531 35836 ft 438 kts 200°
2026-05-05 13:41 47.45388 1.93242 35846 ft 438 kts 200°
2026-05-05 13:41 47.39705 1.89963 35854 ft 439 kts 200°
2026-05-05 13:42 47.34018 1.86690 35860 ft 439 kts 200°
2026-05-05 13:42 47.28343 1.83431 35857 ft 438 kts 200°
2026-05-05 13:43 47.22703 1.80200 35854 ft 437 kts 200°
2026-05-05 13:43 47.17042 1.76977 35852 ft 436 kts 200°
2026-05-05 13:44 47.11366 1.73785 35848 ft 436 kts 200°
2026-05-05 13:44 47.05743 1.70625 35852 ft 436 kts 200°
2026-05-05 13:45 47.00085 1.67450 35853 ft 435 kts 200°
2026-05-05 13:45 46.94428 1.64282 35856 ft 435 kts 200°
2026-05-05 13:46 46.88770 1.61122 35857 ft 435 kts 200°
2026-05-05 13:46 46.84070 1.58502 35857 ft 435 kts 200°
2026-05-05 13:47 46.77496 1.54846 35855 ft 435 kts 200°
2026-05-05 13:47 46.71841 1.51708 35854 ft 435 kts 200°
2026-05-05 13:48 46.67140 1.49105 35854 ft 435 kts 200°
2026-05-05 13:48 46.61480 1.45978 35852 ft 435 kts 200°
2026-05-05 13:49 46.54911 1.42357 35854 ft 434 kts 200°
2026-05-05 13:49 46.49255 1.39246 35857 ft 435 kts 200°
2026-05-05 13:50 46.44549 1.36663 35862 ft 435 kts 200°
2026-05-05 13:50 46.38889 1.33564 35861 ft 435 kts 200°
2026-05-05 13:51 46.33235 1.30474 35866 ft 434 kts 200°
2026-05-05 13:51 46.27572 1.27386 35868 ft 434 kts 200°
2026-05-05 13:52 46.21948 1.24327 35872 ft 435 kts 200°
2026-05-05 13:52 46.16287 1.21253 35887 ft 435 kts 200°
2026-05-05 13:53 46.10625 1.18186 35902 ft 435 kts 200°
2026-05-05 13:53 46.04953 1.15120 35916 ft 435 kts 200°
2026-05-05 13:54 45.99314 1.12080 35929 ft 436 kts 200°
2026-05-05 13:54 45.93638 1.09025 35940 ft 436 kts 200°
2026-05-05 13:55 45.87948 1.05971 35943 ft 437 kts 201°
2026-05-05 13:55 45.82394 1.02461 35940 ft 436 kts 209°
2026-05-05 13:56 45.77376 0.97584 35932 ft 436 kts 219°
2026-05-05 13:56 45.72740 0.91974 35924 ft 436 kts 220°
2026-05-05 13:57 45.68121 0.86431 35919 ft 436 kts 219°
2026-05-05 13:57 45.63462 0.80873 35908 ft 436 kts 219°
2026-05-05 13:58 45.58797 0.75324 35907 ft 436 kts 219°
2026-05-05 13:58 45.54164 0.69825 35907 ft 436 kts 219°
2026-05-05 13:59 45.47178 0.61553 35915 ft 435 kts 219°
2026-05-05 14:00 45.40182 0.53298 35916 ft 435 kts 219°
2026-05-05 14:00 45.35524 0.47817 35908 ft 435 kts 219°
2026-05-05 14:01 45.30894 0.42381 35908 ft 434 kts 219°
2026-05-05 14:01 45.26228 0.36915 35909 ft 435 kts 219°
2026-05-05 14:02 45.21565 0.31463 35938 ft 435 kts 219°
2026-05-05 14:02 45.16890 0.26011 35919 ft 435 kts 219°
2026-05-05 14:03 45.12214 0.20570 35918 ft 434 kts 219°
2026-05-05 14:03 45.07579 0.15187 35922 ft 434 kts 219°
2026-05-05 14:04 45.02913 0.09778 35924 ft 433 kts 219°
2026-05-05 14:04 44.98247 0.04384 35920 ft 433 kts 219°
2026-05-05 14:05 44.93590 -0.00988 35927 ft 432 kts 219°
2026-05-05 14:05 44.88963 -0.06315 35917 ft 432 kts 219°
2026-05-05 14:06 44.84306 -0.11665 35926 ft 431 kts 219°
2026-05-05 14:06 44.79657 -0.16993 35931 ft 431 kts 219°
2026-05-05 14:07 44.75003 -0.22317 35924 ft 431 kts 219°
2026-05-05 14:07 44.70354 -0.27623 35925 ft 430 kts 219°
2026-05-05 14:08 44.65735 -0.32882 35929 ft 430 kts 219°
2026-05-05 14:08 44.60919 -0.37682 35923 ft 430 kts 215°
2026-05-05 14:09 44.55980 -0.42429 35922 ft 430 kts 215°
2026-05-05 14:09 44.51046 -0.47170 35929 ft 430 kts 215°
2026-05-05 14:10 44.46141 -0.51875 35927 ft 430 kts 215°
2026-05-05 14:10 44.41204 -0.56600 35932 ft 430 kts 215°
2026-05-05 14:11 44.36262 -0.61321 35944 ft 430 kts 215°
2026-05-05 14:11 44.31321 -0.66030 35936 ft 430 kts 215°
2026-05-05 14:12 44.26384 -0.70745 35943 ft 430 kts 216°
2026-05-05 14:12 44.21596 -0.75648 35943 ft 430 kts 217°
2026-05-05 14:13 44.16780 -0.80620 35948 ft 430 kts 217°
2026-05-05 14:13 44.11951 -0.85549 35950 ft 431 kts 217°
2026-05-05 14:14 44.07113 -0.90464 35962 ft 431 kts 217°
2026-05-05 14:14 44.02302 -0.95339 35961 ft 431 kts 217°
2026-05-05 14:15 43.97463 -1.00234 35974 ft 431 kts 217°
2026-05-05 14:15 43.92615 -1.05128 35961 ft 431 kts 217°
2026-05-05 14:16 43.87767 -1.10012 35959 ft 431 kts 217°
2026-05-05 14:16 43.82915 -1.14890 35963 ft 431 kts 217°
2026-05-05 14:17 43.78093 -1.19727 35975 ft 431 kts 217°
2026-05-05 14:17 43.73233 -1.24593 35977 ft 431 kts 217°
2026-05-05 14:18 43.68383 -1.29439 35977 ft 430 kts 217°
2026-05-05 14:18 43.63558 -1.34250 35974 ft 430 kts 217°
2026-05-05 14:19 43.58707 -1.39079 36009 ft 430 kts 217°
2026-05-05 14:19 43.53854 -1.43898 36009 ft 430 kts 217°
2026-05-05 14:20 43.49086 -1.48855 36016 ft 429 kts 222°
2026-05-05 14:20 43.44966 -1.54759 36009 ft 428 kts 232°
2026-05-05 14:21 43.41599 -1.61425 36026 ft 427 kts 237°
2026-05-05 14:21 43.38310 -1.68243 36026 ft 427 kts 236°
2026-05-05 14:22 43.35006 -1.75034 36023 ft 427 kts 236°
2026-05-05 14:22 43.31703 -1.81826 36025 ft 427 kts 236°
2026-05-05 14:23 43.28197 -1.88345 36008 ft 427 kts 233°
2026-05-05 14:23 43.24610 -1.94843 35999 ft 427 kts 233°
2026-05-05 14:24 43.21023 -2.01334 36009 ft 427 kts 233°
2026-05-05 14:24 43.17424 -2.07831 36002 ft 428 kts 233°
2026-05-05 14:25 43.13828 -2.14309 35977 ft 428 kts 233°
2026-05-05 14:25 43.10247 -2.20746 35982 ft 428 kts 233°
2026-05-05 14:26 43.06641 -2.27214 35981 ft 428 kts 233°
2026-05-05 14:26 43.03026 -2.33683 35984 ft 428 kts 233°
2026-05-05 14:27 42.99407 -2.40146 36005 ft 428 kts 233°
2026-05-05 14:27 42.95805 -2.46564 36010 ft 429 kts 233°
2026-05-05 14:28 42.92170 -2.53028 36018 ft 429 kts 233°
2026-05-05 14:28 42.88533 -2.59479 36025 ft 429 kts 233°
2026-05-05 14:29 42.84917 -2.65880 36025 ft 429 kts 233°
2026-05-05 14:29 42.81275 -2.72314 36022 ft 429 kts 233°
2026-05-05 14:30 42.77630 -2.78738 36021 ft 429 kts 234°
2026-05-05 14:30 42.73977 -2.85164 36018 ft 429 kts 234°
2026-05-05 14:31 42.70350 -2.91612 36011 ft 429 kts 234°
2026-05-05 14:31 42.66784 -2.98054 36007 ft 429 kts 234°
2026-05-05 14:32 42.63189 -3.04520 35994 ft 429 kts 234°
2026-05-05 14:32 42.59584 -3.10977 35991 ft 429 kts 234°
2026-05-05 14:33 42.55977 -3.17419 35986 ft 428 kts 234°
2026-05-05 14:33 42.52398 -3.23799 35985 ft 428 kts 234°
2026-05-05 14:34 42.48788 -3.30220 35984 ft 428 kts 234°
2026-05-05 14:34 42.45179 -3.36624 35982 ft 428 kts 234°
2026-05-05 14:35 42.41570 -3.43015 35991 ft 428 kts 234°
2026-05-05 14:35 42.37978 -3.49363 35989 ft 428 kts 234°
2026-05-05 14:36 42.34358 -3.55748 35992 ft 428 kts 234°
2026-05-05 14:36 42.30733 -3.62127 35991 ft 428 kts 234°
2026-05-05 14:37 42.27107 -3.68495 35994 ft 428 kts 234°
2026-05-05 14:37 42.23475 -3.74858 35992 ft 428 kts 234°
2026-05-05 14:38 42.19866 -3.81170 35991 ft 428 kts 234°
2026-05-05 14:38 42.16224 -3.87525 35991 ft 428 kts 234°
2026-05-05 14:39 42.12575 -3.93879 35988 ft 428 kts 234°
2026-05-05 14:39 42.08928 -4.00216 35987 ft 429 kts 234°
2026-05-05 14:40 42.05296 -4.06513 35987 ft 429 kts 234°
2026-05-05 14:40 42.01343 -4.12541 35987 ft 432 kts 226°
2026-05-05 14:41 41.96819 -4.17884 35988 ft 433 kts 224°
2026-05-05 14:41 41.92283 -4.23185 35992 ft 433 kts 224°
2026-05-05 14:42 41.87769 -4.28463 35993 ft 433 kts 224°
2026-05-05 14:42 41.83229 -4.33761 35994 ft 433 kts 224°
2026-05-05 14:43 41.78690 -4.39047 35997 ft 432 kts 224°
2026-05-05 14:43 41.74144 -4.44328 35995 ft 432 kts 224°
2026-05-05 14:44 41.69607 -4.49591 35995 ft 432 kts 224°
2026-05-05 14:44 41.65097 -4.54812 35992 ft 432 kts 225°
2026-05-05 14:45 41.60548 -4.60067 35995 ft 431 kts 225°
2026-05-05 14:45 41.56008 -4.65302 35994 ft 431 kts 225°
2026-05-05 14:46 41.51462 -4.70535 35995 ft 431 kts 225°
2026-05-05 14:46 41.46950 -4.75717 35997 ft 431 kts 225°
2026-05-05 14:47 41.42407 -4.80925 35992 ft 431 kts 225°
2026-05-05 14:47 41.37862 -4.86126 35992 ft 431 kts 225°
2026-05-05 14:48 41.33312 -4.91323 35989 ft 431 kts 225°
2026-05-05 14:48 41.28766 -4.96505 35986 ft 431 kts 225°
2026-05-05 14:49 41.24246 -5.01645 35984 ft 431 kts 225°
2026-05-05 14:49 41.19691 -5.06812 35981 ft 430 kts 225°
2026-05-05 14:50 41.15133 -5.11975 35990 ft 430 kts 225°
2026-05-05 14:50 41.10578 -5.17125 36003 ft 430 kts 225°
2026-05-05 14:51 41.06053 -5.22230 36007 ft 430 kts 225°
2026-05-05 14:51 41.01502 -5.27355 36022 ft 429 kts 225°
2026-05-05 14:52 40.96953 -5.32469 36021 ft 429 kts 225°
2026-05-05 14:52 40.92404 -5.37574 36029 ft 428 kts 225°
2026-05-05 14:53 40.87859 -5.42663 36030 ft 428 kts 225°
2026-05-05 14:53 40.83351 -5.47703 36024 ft 427 kts 226°
2026-05-05 14:54 40.78815 -5.52764 36015 ft 427 kts 226°
2026-05-05 14:54 40.74288 -5.57807 36016 ft 426 kts 226°
2026-05-05 14:55 40.69783 -5.62813 35994 ft 422 kts 226°
2026-05-05 14:55 40.65321 -5.67765 35990 ft 422 kts 226°
2026-05-05 14:56 40.60839 -5.72730 35983 ft 420 kts 226°
2026-05-05 14:56 40.56368 -5.77675 35981 ft 420 kts 226°
2026-05-05 14:57 40.51901 -5.82607 35977 ft 419 kts 226°
2026-05-05 14:57 40.47468 -5.87491 35978 ft 418 kts 226°
2026-05-05 14:58 40.43009 -5.92398 35974 ft 418 kts 226°
2026-05-05 14:58 40.38546 -5.97299 35978 ft 418 kts 226°
2026-05-05 14:59 40.34093 -6.02181 35968 ft 417 kts 226°
2026-05-05 14:59 40.29670 -6.07021 35968 ft 417 kts 226°
2026-05-05 15:00 40.25937 -6.11100 35964 ft 417 kts 226°
2026-05-05 15:00 40.20759 -6.16747 35961 ft 417 kts 226°
2026-05-05 15:01 40.16303 -6.21598 35964 ft 417 kts 226°
2026-05-05 15:01 40.11872 -6.26413 35958 ft 417 kts 226°
2026-05-05 15:02 40.07406 -6.31258 35956 ft 417 kts 225°
2026-05-05 15:02 40.02944 -6.36092 35965 ft 417 kts 226°
2026-05-05 15:03 39.98468 -6.40929 35977 ft 418 kts 225°
2026-05-05 15:03 39.94016 -6.45732 35979 ft 419 kts 225°
2026-05-05 15:04 39.89528 -6.50566 35988 ft 419 kts 225°
2026-05-05 15:04 39.85036 -6.55394 35984 ft 417 kts 225°
2026-05-05 15:05 39.78347 -6.62566 35983 ft 415 kts 225°
2026-05-05 15:06 39.73921 -6.67304 35981 ft 414 kts 225°
2026-05-05 15:06 39.69479 -6.72050 35992 ft 414 kts 225°
2026-05-05 15:07 39.65029 -6.76796 35988 ft 413 kts 225°
2026-05-05 15:07 39.60589 -6.81524 35983 ft 413 kts 225°
2026-05-05 15:08 39.56154 -6.86237 35985 ft 412 kts 225°
2026-05-05 15:08 39.51755 -6.90905 35985 ft 412 kts 225°
2026-05-05 15:09 39.47319 -6.95604 35988 ft 411 kts 225°
2026-05-05 15:09 39.42890 -7.00287 35987 ft 411 kts 225°
2026-05-05 15:10 39.38464 -7.04960 35989 ft 411 kts 225°
2026-05-05 15:10 39.34067 -7.09594 35991 ft 410 kts 225°
2026-05-05 15:11 39.29642 -7.14249 35991 ft 410 kts 225°
2026-05-05 15:11 39.25216 -7.18897 35996 ft 410 kts 225°
2026-05-05 15:12 39.20733 -7.23448 36000 ft 412 kts 220°
2026-05-05 15:12 39.16033 -7.27689 36002 ft 412 kts 221°
2026-05-05 15:13 39.11373 -7.31912 36007 ft 412 kts 221°
2026-05-05 15:13 39.06685 -7.36160 36015 ft 412 kts 221°
2026-05-05 15:14 39.01996 -7.40401 36020 ft 412 kts 221°
2026-05-05 15:14 38.97304 -7.44634 36024 ft 412 kts 221°
2026-05-05 15:15 38.92663 -7.48812 36014 ft 409 kts 221°
2026-05-05 15:15 38.88005 -7.53002 36012 ft 409 kts 221°
2026-05-05 15:16 38.83341 -7.57189 36009 ft 409 kts 221°
2026-05-05 15:16 38.78680 -7.61365 36016 ft 409 kts 221°
2026-05-05 15:17 38.74008 -7.65546 36023 ft 410 kts 221°
2026-05-05 15:17 38.69362 -7.69696 36020 ft 410 kts 221°
2026-05-05 15:18 38.64676 -7.73876 36030 ft 411 kts 221°
2026-05-05 15:18 38.59988 -7.78050 36028 ft 411 kts 220°
2026-05-05 15:19 38.55287 -7.82229 36032 ft 411 kts 220°
2026-05-05 15:19 38.50632 -7.86359 36022 ft 409 kts 220°
2026-05-05 15:20 38.45954 -7.90505 36021 ft 410 kts 220°
2026-05-05 15:20 38.41272 -7.94647 36027 ft 409 kts 220°
2026-05-05 15:21 38.36590 -7.98782 36032 ft 409 kts 220°
2026-05-05 15:21 38.31906 -8.02913 36039 ft 410 kts 220°
2026-05-05 15:22 38.27242 -8.07019 36043 ft 410 kts 220°
2026-05-05 15:22 38.22542 -8.11151 36052 ft 411 kts 220°
2026-05-05 15:23 38.17840 -8.15277 36056 ft 411 kts 220°
2026-05-05 15:23 38.13130 -8.19403 36042 ft 411 kts 220°
2026-05-05 15:24 38.08443 -8.23502 36042 ft 409 kts 220°
2026-05-05 15:24 38.03783 -8.27574 36044 ft 410 kts 220°
2026-05-05 15:25 37.99086 -8.31669 36047 ft 410 kts 219°
2026-05-05 15:25 37.94391 -8.35757 36050 ft 410 kts 219°
2026-05-05 15:26 37.89691 -8.39843 36050 ft 409 kts 219°
2026-05-05 15:26 37.85024 -8.43893 36053 ft 410 kts 219°
2026-05-05 15:27 37.80324 -8.47966 36053 ft 410 kts 219°
2026-05-05 15:27 37.75624 -8.52032 36053 ft 410 kts 219°
2026-05-05 15:28 37.70913 -8.56102 36053 ft 410 kts 219°
2026-05-05 15:28 37.66231 -8.60141 36061 ft 411 kts 219°
2026-05-05 15:29 37.61512 -8.64205 36060 ft 411 kts 219°
2026-05-05 15:29 37.56781 -8.68273 36065 ft 412 kts 219°
2026-05-05 15:30 37.52040 -8.72342 36070 ft 413 kts 219°
2026-05-05 15:30 37.47286 -8.76418 36078 ft 414 kts 219°
2026-05-05 15:31 37.42543 -8.80476 36078 ft 415 kts 219°
2026-05-05 15:31 37.37769 -8.84556 36092 ft 415 kts 218°
2026-05-05 15:32 37.32979 -8.88642 36095 ft 416 kts 218°
2026-05-05 15:32 37.28219 -8.92696 36085 ft 417 kts 218°
2026-05-05 15:33 37.23421 -8.96776 36093 ft 417 kts 218°
2026-05-05 15:33 37.18721 -9.00767 36099 ft 417 kts 218°
2026-05-05 15:34 37.13910 -9.04846 36090 ft 417 kts 218°
2026-05-05 15:34 37.09101 -9.08916 36092 ft 417 kts 218°
2026-05-05 15:35 37.04287 -9.12985 36097 ft 418 kts 218°
2026-05-05 15:35 36.99497 -9.17027 36095 ft 418 kts 218°
2026-05-05 15:36 36.94675 -9.21089 36095 ft 418 kts 218°
2026-05-05 15:36 36.89854 -9.25145 36102 ft 418 kts 218°
2026-05-05 15:37 36.85029 -9.29198 36102 ft 418 kts 218°
2026-05-05 15:37 36.80236 -9.33218 36107 ft 418 kts 218°
2026-05-05 15:38 36.75428 -9.37244 36105 ft 418 kts 218°
2026-05-05 15:38 36.70591 -9.41287 36109 ft 418 kts 218°
2026-05-05 15:39 36.65769 -9.45313 36107 ft 418 kts 218°
2026-05-05 15:39 36.60940 -9.49338 36114 ft 417 kts 218°
2026-05-05 15:40 36.56153 -9.53322 36111 ft 417 kts 218°
2026-05-05 15:40 36.51329 -9.57329 36106 ft 417 kts 217°
2026-05-05 15:41 36.46509 -9.61329 36106 ft 417 kts 217°
2026-05-05 15:41 36.41684 -9.65326 36111 ft 416 kts 217°
2026-05-05 15:42 36.36868 -9.69310 36107 ft 416 kts 217°
2026-05-05 15:42 36.32084 -9.73262 36100 ft 416 kts 217°
2026-05-05 15:43 36.27264 -9.77236 36105 ft 416 kts 217°
2026-05-05 15:43 36.22444 -9.81206 36106 ft 416 kts 217°
2026-05-05 15:44 36.17617 -9.85174 36103 ft 416 kts 217°
2026-05-05 15:44 36.12793 -9.89135 36104 ft 416 kts 217°
2026-05-05 15:45 36.07964 -9.93094 36101 ft 417 kts 217°
2026-05-05 15:45 36.03163 -9.97027 36106 ft 417 kts 217°
2026-05-05 15:46 35.98321 -10.00988 36112 ft 417 kts 217°
2026-05-05 15:46 35.93552 -10.05064 36109 ft 416 kts 220°
2026-05-05 15:47 35.88969 -10.09422 36118 ft 416 kts 220°
2026-05-05 15:47 35.84390 -10.13735 36121 ft 417 kts 220°
2026-05-05 15:48 35.79757 -10.18039 36122 ft 418 kts 220°
2026-05-05 15:48 35.75111 -10.22338 36125 ft 418 kts 220°
2026-05-05 15:49 35.70459 -10.26637 36121 ft 418 kts 219°
2026-05-05 15:49 35.65804 -10.30932 36108 ft 419 kts 219°
2026-05-05 15:50 35.61174 -10.35199 36126 ft 419 kts 219°
2026-05-05 15:50 35.56510 -10.39490 36122 ft 419 kts 219°
2026-05-05 15:51 35.51847 -10.43774 36124 ft 419 kts 219°
2026-05-05 15:51 35.47207 -10.48031 36125 ft 419 kts 219°
2026-05-05 15:52 35.42541 -10.52304 36122 ft 419 kts 219°
2026-05-05 15:52 35.37869 -10.56578 36116 ft 419 kts 219°
2026-05-05 15:53 35.33196 -10.60845 36116 ft 419 kts 219°
2026-05-05 15:53 35.28523 -10.65107 36115 ft 419 kts 219°
2026-05-05 15:54 35.23872 -10.69343 36117 ft 419 kts 219°
2026-05-05 15:54 35.19192 -10.73597 36117 ft 420 kts 219°
2026-05-05 15:55 35.14499 -10.77858 36116 ft 420 kts 219°
2026-05-05 15:55 35.09808 -10.82112 36116 ft 420 kts 219°
2026-05-05 15:56 35.05111 -10.86363 36114 ft 421 kts 219°
2026-05-05 15:56 35.00435 -10.90590 36118 ft 421 kts 219°
2026-05-05 15:57 34.95723 -10.94843 36119 ft 422 kts 219°
2026-05-05 15:57 34.91007 -10.99094 36124 ft 422 kts 219°
2026-05-05 15:58 34.86283 -11.03346 36124 ft 422 kts 219°
2026-05-05 15:58 34.81554 -11.07595 36123 ft 423 kts 219°
2026-05-05 15:59 34.76852 -11.11814 36123 ft 423 kts 219°
2026-05-05 15:59 34.72110 -11.16064 36124 ft 423 kts 219°
2026-05-05 16:00 34.67367 -11.20308 36123 ft 424 kts 219°
2026-05-05 16:00 34.62621 -11.24550 36124 ft 424 kts 219°
2026-05-05 16:01 34.57905 -11.28777 36127 ft 424 kts 219°
2026-05-05 16:01 34.53167 -11.33031 36123 ft 424 kts 219°
2026-05-05 16:02 34.48421 -11.37286 36119 ft 424 kts 219°
2026-05-05 16:02 34.43672 -11.41532 36127 ft 425 kts 219°
2026-05-05 16:03 34.38950 -11.45748 36124 ft 424 kts 219°
2026-05-05 16:03 34.34199 -11.49985 36120 ft 425 kts 219°
2026-05-05 16:04 34.29438 -11.54225 36120 ft 424 kts 219°
2026-05-05 16:04 34.24684 -11.58453 36120 ft 424 kts 219°
2026-05-05 16:05 34.19962 -11.62646 36116 ft 424 kts 219°
2026-05-05 16:05 34.15208 -11.66862 36111 ft 424 kts 219°
2026-05-05 16:06 34.10454 -11.71073 36108 ft 424 kts 219°
2026-05-05 16:06 34.05698 -11.75278 36109 ft 424 kts 219°
2026-05-05 16:07 34.00942 -11.79478 36108 ft 424 kts 219°
2026-05-05 16:07 33.96213 -11.83647 36108 ft 424 kts 219°
2026-05-05 16:08 33.91451 -11.87841 36108 ft 424 kts 219°
2026-05-05 16:08 33.86684 -11.92032 36111 ft 424 kts 219°
2026-05-05 16:09 33.81911 -11.96223 36112 ft 425 kts 219°
2026-05-05 16:09 33.77169 -12.00381 36118 ft 425 kts 219°
2026-05-05 16:10 33.72396 -12.04560 36120 ft 425 kts 219°
2026-05-05 16:10 33.67619 -12.08737 36125 ft 424 kts 219°
2026-05-05 16:11 33.62848 -12.12903 36127 ft 424 kts 219°
2026-05-05 16:12 33.53338 -12.21190 36120 ft 423 kts 219°
2026-05-05 16:13 33.42243 -12.30828 36116 ft 422 kts 218°
2026-05-05 16:13 33.36721 -12.35614 36128 ft 421 kts 218°
2026-05-05 16:14 33.27252 -12.43802 36108 ft 420 kts 218°
2026-05-05 16:15 33.17840 -12.51918 36098 ft 418 kts 218°
2026-05-05 16:16 33.09186 -12.59368 36113 ft 420 kts 218°
2026-05-05 16:17 33.01337 -12.66097 36107 ft 417 kts 218°
2026-05-05 16:18 32.95061 -12.71472 36107 ft 417 kts 219°
2026-05-05 16:19 32.87996 -12.77511 36109 ft 417 kts 219°
2026-05-05 16:19 32.80932 -12.83526 36111 ft 416 kts 219°
2026-05-05 16:20 32.71541 -12.91472 36114 ft 416 kts 219°
2026-05-05 16:22 32.59785 -13.01398 36118 ft 414 kts 219°
2026-05-05 16:23 32.50477 -13.09233 36102 ft 410 kts 219°
2026-05-05 16:23 32.43516 -13.15081 36095 ft 408 kts 219°
2026-05-05 16:24 32.38884 -13.18966 36105 ft 408 kts 219°
2026-05-05 16:25 32.31985 -13.24744 36101 ft 406 kts 219°
2026-05-05 16:25 32.25074 -13.30520 36096 ft 405 kts 219°
2026-05-05 16:26 32.15900 -13.38171 36093 ft 403 kts 219°
2026-05-05 16:27 32.11351 -13.41957 36083 ft 402 kts 219°
2026-05-05 16:27 32.06778 -13.45759 36093 ft 402 kts 219°
2026-05-05 16:28 32.02216 -13.49546 36084 ft 401 kts 219°
2026-05-05 16:28 31.97656 -13.53328 36088 ft 400 kts 219°
2026-05-05 16:29 31.93107 -13.57095 36083 ft 399 kts 220°
2026-05-05 16:29 31.88595 -13.60828 36090 ft 399 kts 220°
2026-05-05 16:30 31.84062 -13.64573 36090 ft 398 kts 220°
2026-05-05 16:30 31.79538 -13.68306 36094 ft 397 kts 220°
2026-05-05 16:31 31.75022 -13.72028 36089 ft 396 kts 220°
2026-05-05 16:31 31.70549 -13.75710 36090 ft 395 kts 220°
2026-05-05 16:32 31.66051 -13.79409 36082 ft 394 kts 220°
2026-05-05 16:32 31.61567 -13.83091 36086 ft 393 kts 220°
2026-05-05 16:33 31.57098 -13.86757 36079 ft 392 kts 220°
2026-05-05 16:33 31.52668 -13.90386 36085 ft 391 kts 220°
2026-05-05 16:34 31.48220 -13.94026 36075 ft 390 kts 220°
2026-05-05 16:34 31.43782 -13.97653 36078 ft 388 kts 220°
2026-05-05 16:35 31.39354 -14.01268 36071 ft 387 kts 220°
2026-05-05 16:35 31.34933 -14.04873 36077 ft 386 kts 220°
2026-05-05 16:36 31.30530 -14.08462 36071 ft 386 kts 220°
2026-05-05 16:36 31.26176 -14.12025 36070 ft 385 kts 220°
2026-05-05 16:37 31.21796 -14.15614 36070 ft 384 kts 220°
2026-05-05 16:37 31.17428 -14.19187 36067 ft 383 kts 220°
2026-05-05 16:38 31.13065 -14.22752 36065 ft 382 kts 220°
2026-05-05 16:38 31.08739 -14.26281 36072 ft 382 kts 220°
2026-05-05 16:39 31.04392 -14.29823 36064 ft 381 kts 220°
2026-05-05 16:39 31.00047 -14.33360 36067 ft 380 kts 220°
2026-05-05 16:40 30.95708 -14.36889 36065 ft 380 kts 220°
2026-05-05 16:40 30.91274 -14.40258 36068 ft 383 kts 215°
2026-05-05 16:41 30.86421 -14.42850 36057 ft 391 kts 207°
2026-05-05 16:41 30.81218 -14.44789 36067 ft 393 kts 205°
2026-05-05 16:42 30.76014 -14.46702 36059 ft 392 kts 205°
2026-05-05 16:42 30.70819 -14.48618 36066 ft 391 kts 205°
2026-05-05 16:43 30.65632 -14.50527 36054 ft 391 kts 206°
2026-05-05 16:43 30.60488 -14.52419 36063 ft 390 kts 206°
2026-05-05 16:44 30.55317 -14.54318 36059 ft 390 kts 206°
2026-05-05 16:44 30.50149 -14.56214 36061 ft 389 kts 206°
2026-05-05 16:45 30.44994 -14.58103 36058 ft 388 kts 206°
2026-05-05 16:45 30.39843 -14.59989 36060 ft 388 kts 206°
2026-05-05 16:46 30.34736 -14.61856 36055 ft 387 kts 206°
2026-05-05 16:46 30.29602 -14.63732 36059 ft 387 kts 206°